Printer-friendly version

IAU Minor Planet Center

Minor Planet Center

MPEC 2005-L35 : 2001 FR127

The following Minor Planet Electronic Circular may be linked-to from your own Web pages, but must not otherwise be redistributed electronically.


Read MPEC 2005-L34 Read MPEC 2005-L36


M.P.E.C. 2005-L35                                Issued 2005 June 7, 20:17 UT

     The Minor Planet Electronic Circulars contain information on unusual
         minor planets and routine data on comets.  They are published
   on behalf of Commission 20 of the International Astronomical Union by the
          Minor Planet Center, Smithsonian Astrophysical Observatory,
                          Cambridge, MA 02138, U.S.A.

                  Supported in part by the Brinson Foundation
             Prepared using the Tamkin Foundation Computer Network

                              MPC@CFA.HARVARD.EDU
          URL http://cfa-www.harvard.edu/iau/mpc.html  ISSN 1523-6714

                                  2001 FR127

                           Revision to MPEC 2001-F58

Additional Observations:
     K01FC7R ,C2005 06 04.41420 18 57 14.42 +32 32 11.0          20.1 R EL035695
     K01FC7R ,C2005 06 04.41750 18 57 14.18 +32 32 13.9          21.2 R EL035695
     K01FC7R ,C2005 06 04.42081 18 57 14.02 +32 32 17.4          20.4 R EL035695
     K01FC7R ,C2005 06 04.42410 18 57 13.89 +32 32 21.5                 EL035695
     K01FC7R ,C2005 06 04.42748 18 57 13.66 +32 32 24.2                 EL035695
     K01FC7R ,C2005 06 04.43098 18 57 13.55 +32 32 27.7                 EL035695
     K01FC7R ,C2005 06 04.43461 18 57 12.91 +32 32 33.4                 EL035695
     K01FC7R ,C2005 06 04.43794 18 57 13.09 +32 32 35.7                 EL035695
     K01FC7R ,C2005 06 04.44124 18 57 13.04 +32 32 37.7                 EL035695
     K01FC7R ,C2005 06 04.44453 18 57 12.80 +32 32 42.3                 EL035695
     K01FC7R  C2005 06 07.34918 18 54 42.77 +33 22 10.9                 EL035693
     K01FC7R  C2005 06 07.35182 18 54 42.61 +33 22 13.6                 EL035693
     K01FC7R  C2005 06 07.35376 18 54 42.49 +33 22 15.7                 EL035693

Observer details:
693 Catalina Station, Tucson.  Observer C. W. Hergenrother.  1.54-m reflector
    + CCD.
695 Kitt Peak.  Observer D. E. Trilling.  2.3-m reflector + CCD.

Orbital elements:
2001 FR127
Epoch 2005 Jan. 30.0 TT = JDT 2453400.5                 MPC
M  89.70980              (2000.0)            P               Q
n   0.52630906     Peri.  277.03881     -0.28685760     -0.95368915
a   1.5192952      Node   190.99208     +0.95270171     -0.29389998
e   0.1103377      Incl.   28.33452     -0.10036016     -0.06402975
P   1.87           H   18.9           G   0.15           U   4
Residuals in seconds of arc
010318 608  0.2+  0.3+    010329 608  1.0+  0.9-    010413 413  0.7+  1.0-
010318 608  0.3+  0.0     010329 046  1.2+  1.1+    010413 413  0.9+  0.7-
010318 608  0.8-  0.2-    010329 046  1.1-  0.2+    010414 649  0.2+  0.2+
010327 608  0.9+  0.1-    010330 649  0.4+  0.3+    010414 649  0.0   0.7+
010327 608  1.4+  0.2-    010330 649  0.6+  0.2+    010414 649  1.0+  0.7+
010327 608  1.1+  0.2-    010330 649  0.4+  0.4+    010421 608  0.5-  0.0
010328 422  0.7+  0.0     010330 918  0.7-  0.3-    010421 608  0.0   0.7-
010328 422  0.7+  0.2+    010330 918  1.2-  1.1-    050604 695  0.5+  0.9+
010328 422  0.4+  0.6+    010330 918  0.9-  0.5-    050604 695  0.3-  0.2+
010328 422  0.9+  0.1+    010331 859  0.7+  1.7+    050604 695  0.2-  0.2+
010328 046  0.8-  0.2-    010331 859  0.6-  0.0     050604 695  0.4+  0.8+
010328 046  0.7+  0.2+    010331 859  1.6-  0.7+    050604 695  0.3-  0.1-
010329 046  0.2+  0.3-    010331 859  1.6-  0.7+    050604 695  0.6+  0.4-
010329 046  0.2-  0.3+    010411 413  0.4-  0.5+    050604 695 (5.1-  1.5+)
010329 046  1.3-  0.7-    010411 413  0.3-  0.1+    050604 695  0.6-  0.2+
010329 046  1.1-  0.6-    010411 413  0.7+  0.1+    050604 695  0.9+  1.3-
010329 711  1.1-  0.0     010412 413  0.7+  0.5-    050604 695  0.0   0.2-
010329 711  1.7-  0.1+    010412 413  0.1-  0.3+    050607 693  0.3-  0.2-
010329 608  0.7+  0.8-    010412 413  0.3+  0.3+    050607 693  0.3-  0.1-
010329 608  0.8+  1.0-    010413 413  1.1-  0.4+    050607 693  0.4-  0.1+

Ephemeris:
2001 FR127               a,e,i = 1.52, 0.11, 28                  q = 1.3517
Date    TT    R. A. (2000) Decl.     Delta      r     Elong.  Phase     V
2005 05 30    19 00.99   +30 47.6    0.959    1.672   115.9    33.1    21.3
2005 06 09    18 53.15   +33 48.1    0.940    1.677   118.1    32.3    21.3
2005 06 19    18 41.82   +35 46.4    0.929    1.681   119.6    31.7    21.2
2005 06 29    18 28.54   +36 32.1    0.925    1.684   120.2    31.4    21.2
2005 07 09    18 15.27   +36 01.0    0.929    1.686   120.0    31.5    21.2
2005 07 19    18 04.12   +34 17.6    0.941    1.687   119.0    31.8    21.3
2005 07 29    17 56.57   +31 34.2    0.960    1.686   117.2    32.4    21.3
2005 08 08    17 53.33   +28 06.0    0.987    1.685   114.7    33.2    21.4
2005 08 18    17 54.54   +24 09.2    1.022    1.682   111.6    34.0    21.5
2005 08 28    17 59.89   +19 59.1    1.064    1.678   108.0    34.9    21.6
2005 09 07    18 08.92   +15 47.5    1.112    1.673   104.1    35.7    21.7
2005 09 17    18 21.18   +11 44.5    1.168    1.667   100.0    36.4    21.8
2005 09 27    18 36.15   +07 57.4    1.229    1.660    95.6    36.9    21.9

Timothy B. Spahr             (C) Copyright 2005 MPC           M.P.E.C. 2005-L35

Read MPEC 2005-L34 Read MPEC 2005-L36


Our Web policy. Index to the CBAT/MPC/ICQ pages.


Valid HTML 4.01!